User: anonymous   Login
Location: Unspecified
(0.0000°N, 0.0000°E)
Time: 03:35:56
(UTC+00:00)
Language:

DNEPR OBJECT X - Orbit

View from above orbital plane
View from above orbital plane
View from above satellite
View from above satellite

Ground track
Ground track

The orbit data is extracted from the following two-line orbital elements,

1 39437U 13066X   17112.85181127 +.00037451 +00000-0 +13648-2 0  9991
2 39437 097.7085 212.1492 0009961 304.4407 055.5890 15.28042478186617
Epoch (UTC): 22 April 2017 20:26:36
Eccentricity: 0.0009961
inclination: 97.7085°
perigee height: 475 km
apogee height: 488 km
right ascension of ascending node: 212.1492°
argument of perigee: 304.4407°
revolutions per day: 15.28042478
mean anomaly at epoch: 55.5890°
orbit number at epoch: 18661

The dashed part of the orbit path shows where the satellite is in the earth's shadow,  

DLR